Weather Roundup
Issued by NWS

Home | Current Version | Previous Version | Text Only | Print | Product List | Glossary On
Versions: 1 2 3 4 5 6 7 8 9 10 11 12 13 14 15 16 17 18 19 20 21 22 23 24 25 26 27 28 29 30 31 32 33 34 35 36 37 38 39 40 41 42 43 44 45 46 47 48 49 50
000
NZUS93 KARX 210610
HRRWXR

CURRENT HOURLY OBSERVATIONS ACROSS
MUCH OF THE UPPER MISSISSIPPI VALLEY
NATIONAL WEATHER SERVICE LA CROSSE WI
1200 AM CST SUN DEC 21 2014


...SOUTHEAST MINNESOTA...


CITY           SKY/WX    TMP DP  RH WIND       PRES   REMARKS
ROCHESTER      CLOUDY    30  29  96 SE14      30.07F FOG     WCI  19
ROCHESTER/MAYO CLOUDY    31  29  91 SE7       30.08F WCI  24
WINONA         CLOUDY    34  32  93 SE5       30.14S FOG     WCI  30
AUSTIN         FOG       30  30 100 S9        30.07S VSB 3/4 WCI  22
ALBERT LEA     FOG       32  32 100 S12       30.05S VSB 3/4 WCI  23
DODGE CENTER   CLOUDY    30  30 100 S12       30.06S FOG     WCI  21
PRESTON        CLOUDY    30  29  96 SE8       30.09F FOG     WCI  22
OWATONNA       CLOUDY    32  28  86 S8        30.06S FOG     WCI  25
FARIBAULT      CLOUDY    32  28  86 SE8       30.06S WCI  25
$$

...ELSEWHERE IN MINNESOTA...


CITY           SKY/WX    TMP DP  RH WIND       PRES   REMARKS
MINNEAPOLIS    CLOUDY    31  26  82 SE9       30.07F WCI  23
INTNL FALLS    CLOUDY    28  26  92 S6        29.94F WCI  22
DULUTH         CLOUDY    30  25  81 S13G20    30.01F WCI  20
RED WING       CLOUDY    34  27  75 SE6       30.08F WCI  29
REDWOOD FALLS  CLOUDY    33  30  88 S12       30.00S WCI  24
MANKATO        CLOUDY    32  27  80 S9        30.04S WCI  24
WORTHINGTON    CLOUDY    30  28  93 S14       29.98F WCI  20
FAIRMONT       CLOUDY    32  28  86 S14       30.02S WCI  22
$$

...SOUTHWEST WISCONSIN...


CITY           SKY/WX    TMP DP  RH WIND       PRES   REMARKS
LA CROSSE      CLOUDY    33  28  81 SE7       30.14F HAZE    WCI  27
PRAIRIE DU CHI CLOUDY    32  29  90 E6        30.16F FOG     WCI  26
BOSCOBEL       CLOUDY    32  28  85 CALM      30.17F FOG
LONE ROCK      CLOUDY    35  27  72 SE5       30.18F WCI  31
PLATTEVILLE    CLOUDY    31  30  95 CALM      30.17S
FORT MC COY    CLOUDY    31  27  86 S5        30.16F FOG     WCI  26
CAMP DOUGLAS   MOCLDY    30  30 100 SE5       30.15F WCI  25
VIROQUA        CLOUDY    29  29 100 S6        30.13S WCI  23
WIS DELLS      CLOUDY    29  26  86 S8        30.16F FOG     WCI  21
$$

...ELSEWHERE IN WISCONSIN...


CITY           SKY/WX    TMP DP  RH WIND       PRES   REMARKS
MILWAUKEE      CLOUDY    32  24  72 SW7       30.23S WCI  26
MADISON        CLOUDY    30  26  85 S7        30.18F WCI  23
GREEN BAY      CLOUDY    29  27  92 S6        30.20F FOG     WCI  23
EAU CLAIRE     CLOUDY    31  27  85 S9        30.11F FOG     WCI  23
BLACK RVR FLS  CLOUDY    31  28  86 CALM      30.15S FOG
MEDFORD        CLOUDY    28  26  95 S7        30.11F FOG     WCI  20
WAUSAU         CLOUDY    28  25  88 S5        30.13F FOG     WCI  23
WIS RAPIDS     CLOUDY    29  25  85 S5        30.17S WCI  24
MARSHFIELD     CLOUDY    29  26  89 S6        30.13F FOG     WCI  23
RICE LAKE      CLOUDY    30  28  93 SE8       30.10F FOG     WCI  23
$$

...NORTHEAST IOWA...


CITY           SKY/WX    TMP DP  RH WIND       PRES   REMARKS
DECORAH        CLOUDY    30  30 100 S9G15     30.11S FOG     WCI  22
MASON CITY     FOG       32  32 100 S13       30.08S VSB 1/2 WCI  22
CHARLES CITY   FOG       32  32 100 SE13      30.09F VSB<1/4 WCI  22
OELWEIN        FOG       32  32 100 S10       30.12F VSB<1/4 WCI  24
$$

...ELSEWHERE IN IOWA...


CITY           SKY/WX    TMP DP  RH WIND       PRES   REMARKS
DES MOINES     CLOUDY    37  35  92 S9        30.09S FOG     WCI  30
IOWA CITY      CLOUDY    34  33  96 SE6       30.17S FOG     WCI  29
FORT DODGE     CLOUDY    34  30  86 S5        30.05F WCI  30
$$

...NORTHERN ILLINOIS...


CITY           SKY/WX    TMP DP  RH WIND       PRES   REMARKS
CHICAGO-OHARE  CLOUDY    31  26  82 S6        30.24S WCI  25
CHICAGO-MIDWAY CLOUDY    34  27  75 S6        30.25S WCI  29
MOLINE         CLOUDY    34  31  88 S10       30.18F FOG     WCI  26
ROCKFORD       LGT SNOW  32  28  85 S8        30.23F FOG     WCI  25
PEORIA         CLOUDY    36  29  75 S9        30.23R WCI  29
$$

NOTE: "FAIR" INDICATES FEW OR NO CLOUDS BELOW 12,000 FEET WITH NO
SIGNIFICANT WEATHER AND/OR OBSTRUCTIONS TO VISIBILITY. WIND
SPEEDS ARE IN MILES-PER-HOUR.



USA.gov is the U.S. government's official web portal to all federal, state and local government web resources and services.